Regional Weather Roundup
Issued by NWS Little Rock, AR

Home | Current Version | Previous Version | Graphics & Text | Print | Product List | Glossary On
Versions: 1 2 3 4 5 6 7 8 9 10 11 12 13 14 15 16 17 18 19 20 21 22 23 24 25 26 27 28 29 30 31 32 33 34 35 36 37 38 39 40 41 42 43 44 45 46 47 48 49 50
000
ASUS44 KLZK 042105
RWRLZK

WEATHER ROUNDUP FOR ARKANSAS
NATIONAL WEATHER SERVICE LITTLE ROCK AR
400 PM CDT FRI SEP 04 2015

NOTE: "FAIR" INDICATES FEW OR NO CLOUDS BELOW 12,000 FEET WITH NO
SIGNIFICANT WEATHER AND/OR OBSTRUCTIONS TO VISIBILITY.

ARZ001-003-010-029-042200-
NORTHWEST ARKANSAS

CITY           SKY/WX    TMP DP  RH WIND       PRES   REMARKS
FAYETTEVILLE   FAIR      88  69  53 SW6       30.00F HX  92
FORT SMITH     FAIR      93  69  45 NE9       29.94F HX  98
HARRISON       FAIR      88  67  49 SE9       30.02F HX  91
BENTONVILLE    FAIR      90  66  45 SE9       30.02F HX  92
ROGERS         FAIR      88  69  53 S7        30.01F HX  92
SILOAM SPGS    FAIR      90  66  45 S6        29.98F HX  92
HIGHFILL       FAIR      89  69  51 S6        30.00F HX  93
SPRINGDALE     MOSUNNY   88  66  48 SE9       30.02F HX  90
$$

ARZ004-005-016-042200-
NORTH CENTRAL ARKANSAS

CITY           SKY/WX    TMP DP  RH WIND       PRES   REMARKS
BATESVILLE     FAIR      93  68  43 E8        29.99F HX  97
FLIPPIN        FAIR      93  63  36 E6        29.98F HX  94
MTN HOME       FAIR      91  65  41 SE7       29.99F HX  93
$$

ARZ040-041-042200-
WEST CENTRAL ARKANSAS

CITY           SKY/WX    TMP DP  RH WIND       PRES   REMARKS
MENA           FAIR      97  68  38 E3        29.97F HX 101
MOUNT IDA      FAIR      94  67  41 VRB6      29.94F HX  97
$$

ARZ009-017-025-026-028-042200-
NORTHEAST ARKANSAS

CITY           SKY/WX    TMP DP  RH WIND       PRES   REMARKS
JONESBORO      FAIR      91  69  48 E5        29.97F HX  96
NEWPORT        FAIR      92  71  50 VRB6      29.99F HX  98
WALNUT RIDGE   FAIR      91  66  43 SE3       29.97F HX  94
BLYTHEVILLE    FAIR      92  71  50 E5        29.98F HX  98
$$

ARZ022-023-033-042-044-042200-
CENTRAL ARKANSAS

CITY           SKY/WX    TMP DP  RH WIND       PRES   REMARKS
LITTLE ROCK    FAIR      97  67  37 E7        29.95F HX 101
N LITTLE ROCK  MOSUNNY   95  71  45 E8        29.95F HX 102
JACKSONVILLE   FAIR      95  67  40 E8        29.95F HX  99
SEARCY         FAIR      95  71  45 E7        29.98F HX 102
HOT SPRINGS    FAIR      95  64  35 VRB5      29.95F HX  97
RUSSELLVILLE   FAIR      95  65  37 NE3       29.94F HX  97
$$

ARZ036-042200-
EAST ARKANSAS

CITY           SKY/WX    TMP DP  RH WIND       PRES   REMARKS
WEST MEMPHIS   FAIR      87  72  60 SW3       29.96F HX  93
$$

ARZ050-053-066-070-073-042200-
SOUTHWEST ARKANSAS

CITY           SKY/WX    TMP DP  RH WIND       PRES   REMARKS
ARKADELPHIA    FAIR      95  71  45 SW5       29.94F HX 102
CAMDEN         FAIR      95  66  38 S7        29.93F HX  98
TEXARKANA      PTSUNNY   92  69  47 SE7       29.94F HX  97
EL DORADO      FAIR      95  70  44 NW8       29.94F HX 101
DE QUEEN       LGT RAIN  84  77  79 E5        29.92F HX  94
$$

ARZ056-057-069-042200-
SOUTHEAST ARKANSAS

CITY           SKY/WX    TMP DP  RH WIND       PRES   REMARKS
PINE BLUFF     FAIR      94  71  47 E9        29.94F HX 101
STUTTGART      FAIR      95  64  36 E7        29.96F HX  97
MONTICELLO     FAIR      95  67  39 E3        29.94F HX  99

$$




USA.gov is the U.S. government's official web portal to all federal, state and local government web resources and services.